| time (UTC) | temp F | wind direction | speed MPH | gust MPH | rain 1hr in | rain 24hr in | rain mn in | humidity % | barometer mb |
| 20260905125558 | 38 | 0 | 0.0 | 1.0 | 0.00 | 0.00 | 0.00 | 84 | 1021.5 |
| 20260905125058 | 38 | 0 | 0.0 | 0.0 | 0.00 | 0.00 | 0.00 | 85 | 1021.4 |
| 20260905124605 | 38 | 0 | 0.0 | 2.0 | 0.00 | 0.00 | 0.00 | 85 | 1021.3 |
| 20260905124058 | 38 | 0 | 1.0 | 2.0 | 0.00 | 0.00 | 0.00 | 83 | 1021.0 |
| 20260905123558 | 39 | 0 | 0.0 | 0.0 | 0.00 | 0.00 | 0.00 | 85 | 1021.1 |
| 20260905123110 | 39 | 0 | 0.0 | 1.0 | 0.00 | 0.00 | 0.00 | 86 | 1020.9 |
| 20260905122558 | 39 | 0 | 0.0 | 1.0 | 0.00 | 0.00 | 0.00 | 83 | 1021.0 |
| 20260905122100 | 39 | 0 | 0.0 | 1.0 | 0.00 | 0.00 | 0.00 | 80 | 1021.0 |
| 20260905121605 | 39 | 243 | 0.0 | 1.0 | 0.00 | 0.00 | 0.00 | 82 | 1020.9 |
| 20260905121058 | 40 | 171 | 0.0 | 1.0 | 0.00 | 0.00 | 0.00 | 81 | 1020.9 |
| 20260905120602 | 40 | 0 | 0.0 | 1.0 | 0.00 | 0.00 | 0.00 | 80 | 1020.9 |
| 20260905120107 | 40 | 0 | 0.0 | 2.0 | 0.00 | 0.00 | 0.00 | 81 | 1021.0 |
| 20260905115558 | 40 | 216 | 0.0 | 2.0 | 0.00 | 0.00 | 0.00 | 81 | 1020.8 |
| 20260905115058 | 41 | 170 | 0.0 | 2.0 | 0.00 | 0.00 | 0.00 | 78 | 1021.0 |
| 20260905114602 | 41 | 0 | 0.0 | 3.0 | 0.00 | 0.00 | 0.00 | 79 | 1020.9 |
| 20260905114102 | 41 | 0 | 0.0 | 3.0 | 0.00 | 0.00 | 0.00 | 82 | 1021.0 |
| 20260905113558 | 41 | 170 | 0.0 | 3.0 | 0.00 | 0.00 | 0.00 | 80 | 1021.0 |
| 20260905113107 | 41 | 0 | 0.0 | 2.0 | 0.00 | 0.00 | 0.00 | 81 | 1020.9 |
| 20260905112558 | 41 | 169 | 0.0 | 3.0 | 0.00 | 0.00 | 0.00 | 82 | 1020.9 |
| 20260905112058 | 40 | 0 | 0.0 | 3.0 | 0.00 | 0.00 | 0.00 | 83 | 1020.9 |
| 20260905111646 | 40 | 158 | 0.0 | 3.0 | 0.00 | 0.00 | 0.00 | 82 | 1021.0 |
| 20260905111057 | 40 | 0 | 1.0 | 3.0 | 0.00 | 0.00 | 0.00 | 81 | 1020.9 |
| 20260905110558 | 40 | 0 | 0.0 | 2.0 | 0.00 | 0.00 | 0.00 | 80 | 1021.0 |
| 20260905105557 | 41 | 0 | 0.0 | 2.0 | 0.00 | 0.00 | 0.00 | 82 | 1021.0 |
| 20260905105059 | 41 | 0 | 0.0 | 3.0 | 0.00 | 0.00 | 0.00 | 82 | 1020.9 |
| 20260905104608 | 41 | 0 | 0.0 | 3.0 | 0.00 | 0.00 | 0.00 | 83 | 1021.1 |
| 20260905104058 | 41 | 0 | 1.0 | 3.0 | 0.00 | 0.00 | 0.00 | 81 | 1020.9 |
| 20260905103559 | 41 | 240 | 0.0 | 3.0 | 0.00 | 0.00 | 0.00 | 82 | 1021.0 |
| 20260905103104 | 41 | 188 | 0.0 | 2.0 | 0.00 | 0.00 | 0.00 | 82 | 1021.0 |
| 20260905102558 | 42 | 155 | 0.0 | 3.0 | 0.00 | 0.00 | 0.00 | 83 | 1021.0 |
| 20260905102058 | 41 | 0 | 0.0 | 3.0 | 0.00 | 0.00 | 0.00 | 80 | 1021.1 |
| 20260905101607 | 42 | 0 | 0.0 | 2.0 | 0.00 | 0.00 | 0.00 | 82 | 1021.1 |
| 20260905101058 | 42 | 0 | 0.0 | 2.0 | 0.00 | 0.00 | 0.00 | 82 | 1021.1 |
| 20260905100558 | 42 | 169 | 0.0 | 2.0 | 0.00 | 0.00 | 0.00 | 82 | 1021.2 |
| 20260905100114 | 41 | 0 | 1.0 | 2.0 | 0.00 | 0.00 | 0.00 | 81 | 1021.2 |
| 20260905095557 | 41 | 210 | 0.0 | 3.0 | 0.00 | 0.00 | 0.00 | 83 | 1021.3 |
| 20260905095058 | 41 | 0 | 1.0 | 3.0 | 0.00 | 0.00 | 0.00 | 80 | 1021.1 |
| 20260905094607 | 41 | 0 | 0.0 | 2.0 | 0.00 | 0.00 | 0.00 | 81 | 1021.3 |
| 20260905094100 | 42 | 0 | 0.0 | 2.0 | 0.00 | 0.00 | 0.00 | 79 | 1021.1 |
| 20260905093558 | 42 | 0 | 0.0 | 3.0 | 0.00 | 0.00 | 0.00 | 82 | 1021.1 |
| 20260905093107 | 42 | 185 | 1.0 | 3.0 | 0.00 | 0.00 | 0.00 | 81 | 1021.1 |
| 20260905092600 | 42 | 208 | 0.0 | 1.0 | 0.00 | 0.00 | 0.00 | 80 | 1021.1 |
| 20260905092102 | 42 | 0 | 0.0 | 1.0 | 0.00 | 0.00 | 0.00 | 83 | 1021.1 |
| 20260905091606 | 42 | 0 | 0.0 | 2.0 | 0.00 | 0.00 | 0.00 | 82 | 1021.3 |
| 20260905091057 | 42 | 0 | 0.0 | 2.0 | 0.00 | 0.00 | 0.00 | 82 | 1021.2 |
| 20260905090603 | 42 | 0 | 0.0 | 2.0 | 0.00 | 0.00 | 0.00 | 80 | 1021.3 |
| 20260905090105 | 42 | 0 | 0.0 | 2.0 | 0.00 | 0.00 | 0.00 | 79 | 1021.2 |
| 20260905085601 | 43 | 233 | 0.0 | 2.0 | 0.00 | 0.00 | 0.00 | 81 | 1021.3 |
| 20260905085057 | 43 | 0 | 1.0 | 2.0 | 0.00 | 0.00 | 0.00 | 81 | 1021.3 |
| 20260905084607 | 42 | 0 | 0.0 | 2.0 | 0.00 | 0.00 | 0.00 | 80 | 1021.2 |
| 20260905084058 | 42 | 0 | 0.0 | 1.0 | 0.00 | 0.00 | 0.00 | 80 | 1021.3 |
| 20260905083602 | 43 | 0 | 0.0 | 0.0 | 0.00 | 0.00 | 0.00 | 79 | 1021.3 |
| 20260905083106 | 43 | 0 | 0.0 | 2.0 | 0.00 | 0.00 | 0.00 | 80 | 1021.3 |
| 20260905082558 | 42 | 0 | 0.0 | 2.0 | 0.00 | 0.00 | 0.00 | 79 | 1021.3 |
| 20260905082058 | 43 | 0 | 0.0 | 2.0 | 0.00 | 0.00 | 0.00 | 79 | 1021.3 |
| 20260905081601 | 43 | 0 | 0.0 | 2.0 | 0.00 | 0.00 | 0.00 | 77 | 1021.3 |
| 20260905081058 | 43 | 181 | 0.0 | 1.0 | 0.00 | 0.00 | 0.00 | 80 | 1021.3 |
| 20260905080601 | 43 | 198 | 0.0 | 0.0 | 0.00 | 0.00 | 0.00 | 76 | 1021.4 |
| 20260905080129 | 44 | 0 | 0.0 | 1.0 | 0.00 | 0.00 | 0.00 | 78 | 1021.4 |
| 20260905075558 | 44 | 0 | 0.0 | 1.0 | 0.00 | 0.00 | 0.00 | 78 | 1021.3 |
| 20260905075057 | 44 | 170 | 0.0 | 1.0 | 0.00 | 0.00 | 0.00 | 77 | 1021.4 |
| 20260905074605 | 44 | 0 | 0.0 | 2.0 | 0.00 | 0.00 | 0.00 | 78 | 1021.4 |
| 20260905074059 | 44 | 0 | 0.0 | 2.0 | 0.00 | 0.00 | 0.00 | 77 | 1021.3 |
| 20260905073558 | 44 | 233 | 0.0 | 1.0 | 0.00 | 0.00 | 0.00 | 79 | 1021.3 |
| 20260905073104 | 44 | 0 | 0.0 | 0.0 | 0.00 | 0.00 | 0.00 | 79 | 1021.3 |
| 20260905072558 | 44 | 0 | 0.0 | 1.0 | 0.00 | 0.00 | 0.00 | 76 | 1021.3 |
| 20260905072101 | 44 | 0 | 0.0 | 1.0 | 0.00 | 0.00 | 0.00 | 78 | 1021.2 |
| 20260905071604 | 44 | 0 | 0.0 | 0.0 | 0.00 | 0.00 | 0.00 | 76 | 1021.3 |
| 20260905071102 | 45 | 0 | 0.0 | 0.0 | 0.00 | 0.00 | 0.00 | 75 | 1021.2 |
| 20260905070558 | 45 | 0 | 0.0 | 1.0 | 0.00 | 0.00 | 0.00 | 77 | 1021.2 |
| 20260905070110 | 45 | 0 | 0.0 | 4.0 | 0.00 | 0.00 | 0.00 | 76 | 1021.1 |
| 20260905065558 | 46 | 236 | 0.0 | 4.0 | 0.00 | 0.00 | 0.00 | 73 | 1021.1 |
| 20260905065058 | 46 | 226 | 1.0 | 3.0 | 0.00 | 0.00 | 0.00 | 76 | 1020.9 |
| 20260905064606 | 46 | 0 | 0.0 | 0.0 | 0.00 | 0.00 | 0.00 | 74 | 1021.1 |
| 20260905064059 | 47 | 0 | 0.0 | 0.0 | 0.00 | 0.00 | 0.00 | 74 | 1020.9 |
| 20260905063559 | 47 | 218 | 0.0 | 0.0 | 0.00 | 0.00 | 0.00 | 74 | 1020.9 |
| 20260905063128 | 47 | 0 | 0.0 | 0.0 | 0.00 | 0.00 | 0.00 | 75 | 1020.9 |
| 20260905062558 | 47 | 0 | 0.0 | 1.0 | 0.00 | 0.00 | 0.00 | 75 | 1020.8 |
| 20260905062058 | 48 | 0 | 0.0 | 3.0 | 0.00 | 0.00 | 0.00 | 74 | 1020.8 |
| 20260905061615 | 48 | 0 | 0.0 | 3.0 | 0.00 | 0.00 | 0.00 | 74 | 1020.8 |
| 20260905061100 | 48 | 126 | 2.0 | 3.0 | 0.00 | 0.00 | 0.00 | 73 | 1020.8 |
| 20260905060558 | 49 | 0 | 0.0 | 2.0 | 0.00 | 0.00 | 0.00 | 73 | 1020.8 |
| 20260905060108 | 48 | 114 | 1.0 | 2.0 | 0.00 | 0.00 | 0.00 | 74 | 1020.8 |
| 20260905055601 | 48 | 151 | 0.0 | 1.0 | 0.00 | 0.00 | 0.00 | 73 | 1020.7 |
| 20260905055100 | 48 | 0 | 0.0 | 1.0 | 0.00 | 0.00 | 0.00 | 73 | 1020.6 |
| 20260905054608 | 49 | 0 | 0.0 | 1.0 | 0.00 | 0.00 | 0.00 | 72 | 1020.5 |
| 20260905054058 | 49 | 231 | 0.0 | 3.0 | 0.00 | 0.00 | 0.00 | 71 | 1020.5 |
| 20260905053559 | 50 | 0 | 0.0 | 3.0 | 0.00 | 0.00 | 0.00 | 70 | 1020.5 |
| 20260905053111 | 50 | 71 | 1.0 | 3.0 | 0.00 | 0.00 | 0.00 | 71 | 1020.5 |
| 20260905052558 | 50 | 136 | 0.0 | 4.0 | 0.00 | 0.00 | 0.00 | 69 | 1020.5 |
| 20260905052101 | 50 | 107 | 2.0 | 4.0 | 0.00 | 0.00 | 0.00 | 69 | 1020.6 |
| 20260905051601 | 50 | 101 | 2.0 | 5.0 | 0.00 | 0.00 | 0.00 | 70 | 1020.4 |
| 20260905051058 | 50 | 85 | 3.0 | 5.0 | 0.00 | 0.00 | 0.00 | 71 | 1020.3 |
| 20260905050558 | 50 | 96 | 2.0 | 3.0 | 0.00 | 0.00 | 0.00 | 71 | 1020.4 |
| 20260905050111 | 50 | 148 | 0.0 | 1.0 | 0.00 | 0.00 | 0.00 | 69 | 1020.3 |
| 20260905045558 | 50 | 184 | 0.0 | 2.0 | 0.00 | 0.00 | 0.00 | 68 | 1020.4 |
| 20260905045058 | 50 | 89 | 0.0 | 3.0 | 0.00 | 0.00 | 0.00 | 68 | 1020.2 |
| 20260905044608 | 51 | 148 | 0.0 | 3.0 | 0.00 | 0.00 | 0.00 | 68 | 1020.2 |
| 20260905044058 | 51 | 113 | 1.0 | 3.0 | 0.00 | 0.00 | 0.00 | 67 | 1020.1 |
| 20260905043558 | 51 | 79 | 1.0 | 3.0 | 0.00 | 0.00 | 0.00 | 68 | 1020.1 |
| 20260905043102 | 51 | 130 | 1.0 | 6.0 | 0.00 | 0.00 | 0.00 | 68 | 1020.0 |
| 20260905042559 | 51 | 128 | 3.0 | 6.0 | 0.00 | 0.00 | 0.00 | 69 | 1019.9 |
| 20260905042058 | 51 | 134 | 1.0 | 3.0 | 0.00 | 0.00 | 0.00 | 67 | 1019.8 |
| 20260905041607 | 51 | 115 | 2.0 | 3.0 | 0.00 | 0.00 | 0.00 | 66 | 1020.0 |
| 20260905041059 | 51 | 170 | 0.0 | 3.0 | 0.00 | 0.00 | 0.00 | 65 | 1019.9 |
| 20260905040558 | 52 | 0 | 0.0 | 1.0 | 0.00 | 0.00 | 0.00 | 66 | 1019.8 |
| 20260905040110 | 52 | 0 | 0.0 | 4.0 | 0.00 | 0.00 | 0.00 | 65 | 1019.9 |
| 20260905035602 | 53 | 0 | 0.0 | 5.0 | 0.00 | 0.00 | 0.00 | 63 | 1019.8 |
| 20260905035058 | 53 | 0 | 2.0 | 5.0 | 0.00 | 0.00 | 0.00 | 64 | 1019.9 |
| 20260905034619 | 54 | 0 | 2.0 | 5.0 | 0.00 | 0.00 | 0.00 | 64 | 1019.7 |
| 20260905034059 | 54 | 76 | 1.0 | 5.0 | 0.00 | 0.00 | 0.00 | 62 | 1019.7 |
| 20260905033558 | 54 | 95 | 4.0 | 5.0 | 0.00 | 0.00 | 0.00 | 63 | 1019.7 |
| 20260905033119 | 54 | 99 | 3.0 | 4.0 | 0.00 | 0.00 | 0.00 | 62 | 1019.8 |
| 20260905032559 | 54 | 92 | 1.0 | 4.0 | 0.00 | 0.00 | 0.00 | 61 | 1019.7 |
| 20260905032058 | 55 | 0 | 0.0 | 3.0 | 0.00 | 0.00 | 0.00 | 62 | 1019.7 |
| 20260905031615 | 55 | 0 | 1.0 | 3.0 | 0.00 | 0.00 | 0.00 | 62 | 1019.7 |
| 20260905031058 | 56 | 150 | 0.0 | 8.0 | 0.00 | 0.00 | 0.00 | 60 | 1019.7 |
| 20260905030558 | 56 | 0 | 1.0 | 9.0 | 0.00 | 0.00 | 0.00 | 58 | 1019.4 |
| 20260905030106 | 57 | 68 | 4.0 | 9.0 | 0.00 | 0.00 | 0.00 | 57 | 1019.4 |
| 20260905025559 | 57 | 80 | 3.0 | 9.0 | 0.00 | 0.00 | 0.00 | 58 | 1019.2 |
| 20260905025102 | 58 | 77 | 3.0 | 8.0 | 0.00 | 0.00 | 0.00 | 55 | 1019.0 |
| 20260905024605 | 59 | 30 | 2.0 | 8.0 | 0.00 | 0.00 | 0.00 | 51 | 1018.9 |
| 20260905024058 | 61 | 51 | 4.0 | 8.0 | 0.00 | 0.00 | 0.00 | 47 | 1018.8 |
| 20260905023558 | 63 | 49 | 0.0 | 5.0 | 0.00 | 0.00 | 0.00 | 26 | 1018.5 |
| 20260905023127 | 64 | 295 | 1.0 | 12.0 | 0.00 | 0.00 | 0.00 | 25 | 1018.5 |
| 20260905022558 | 64 | 133 | 4.0 | 12.0 | 0.00 | 0.00 | 0.00 | 24 | 1018.5 |
| 20260905022059 | 63 | 241 | 1.0 | 5.0 | 0.00 | 0.00 | 0.00 | 26 | 1018.6 |
| 20260905021605 | 64 | 0 | 3.0 | 7.0 | 0.00 | 0.00 | 0.00 | 26 | 1018.7 |
| 20260905021058 | 65 | 128 | 2.0 | 7.0 | 0.00 | 0.00 | 0.00 | 24 | 1018.6 |
| 20260905020558 | 64 | 134 | 2.0 | 9.0 | 0.00 | 0.00 | 0.00 | 25 | 1018.6 |
| 20260905020106 | 65 | 238 | 3.0 | 10.0 | 0.00 | 0.00 | 0.00 | 24 | 1018.5 |
| 20260905015558 | 65 | 165 | 4.0 | 11.0 | 0.00 | 0.00 | 0.00 | 25 | 1018.6 |
| 20260905015058 | 65 | 109 | 4.0 | 11.0 | 0.00 | 0.00 | 0.00 | 24 | 1018.5 |
| 20260905014606 | 66 | 104 | 5.0 | 11.0 | 0.00 | 0.00 | 0.00 | 23 | 1018.5 |
| 20260905014101 | 66 | 127 | 3.0 | 13.0 | 0.00 | 0.00 | 0.00 | 24 | 1018.6 |
| 20260905013557 | 66 | 0 | 1.0 | 13.0 | 0.00 | 0.00 | 0.00 | 23 | 1018.6 |
| 20260905013103 | 67 | 265 | 5.0 | 13.0 | 0.00 | 0.00 | 0.00 | 23 | 1018.6 |
| 20260905012558 | 67 | 165 | 3.0 | 7.0 | 0.00 | 0.00 | 0.00 | 24 | 1018.5 |
| 20260905012101 | 67 | 115 | 3.0 | 7.0 | 0.00 | 0.00 | 0.00 | 23 | 1018.4 |
| 20260905011606 | 68 | 79 | 0.0 | 8.0 | 0.00 | 0.00 | 0.00 | 22 | 1018.4 |
| 20260905011101 | 68 | 268 | 1.0 | 8.0 | 0.00 | 0.00 | 0.00 | 23 | 1018.3 |
| 20260905010559 | 69 | 144 | 4.0 | 8.0 | 0.00 | 0.00 | 0.00 | 23 | 1018.4 |
| 20260905010112 | 70 | 169 | 0.0 | 5.0 | 0.00 | 0.00 | 0.00 | 23 | 1018.4 |
| 20260905005558 | 70 | 0 | 1.0 | 7.0 | 0.00 | 0.00 | 0.00 | 25 | 1018.4 |
| 20260905005101 | 70 | 158 | 1.0 | 8.0 | 0.00 | 0.00 | 0.00 | 24 | 1018.2 |
| 20260905004633 | 70 | 150 | 2.0 | 10.0 | 0.00 | 0.00 | 0.00 | 22 | 1018.2 |
| 20260905004058 | 70 | 153 | 4.0 | 10.0 | 0.00 | 0.00 | 0.00 | 22 | 1018.3 |
| 20260905003600 | 70 | 207 | 2.0 | 9.0 | 0.00 | 0.00 | 0.00 | 23 | 1018.4 |
| 20260905003124 | 70 | 238 | 2.0 | 9.0 | 0.00 | 0.00 | 0.00 | 24 | 1018.3 |
| 20260905002558 | 70 | 257 | 1.0 | 18.0 | 0.00 | 0.00 | 0.00 | 22 | 1018.3 |
| 20260905002058 | 70 | 340 | 4.0 | 18.0 | 0.00 | 0.00 | 0.00 | 23 | 1018.4 |
| 20260905001605 | 70 | 153 | 6.0 | 18.0 | 0.00 | 0.00 | 0.00 | 22 | 1018.3 |
| 20260905001102 | 70 | 226 | 3.0 | 14.0 | 0.00 | 0.00 | 0.00 | 22 | 1018.3 |
| 20260905000558 | 71 | 188 | 2.0 | 11.0 | 0.00 | 0.00 | 0.00 | 23 | 1018.2 |
| 20260905000144 | 71 | 101 | 5.0 | 11.0 | 0.00 | 0.00 | 0.00 | 23 | 1018.3 |
| 20260904235558 | 71 | 219 | 2.0 | 12.0 | 0.00 | 0.00 | 0.00 | 23 | 1018.2 |
| 20260904235057 | 71 | 280 | 4.0 | 12.0 | 0.00 | 0.00 | 0.00 | 23 | 1018.2 |
| 20260904234607 | 71 | 214 | 5.0 | 13.0 | 0.00 | 0.00 | 0.00 | 24 | 1018.3 |
| 20260904234057 | 70 | 226 | 2.0 | 13.0 | 0.00 | 0.00 | 0.00 | 24 | 1018.1 |
| 20260904233602 | 71 | 148 | 4.0 | 13.0 | 0.00 | 0.00 | 0.00 | 25 | 1018.2 |
| 20260904233105 | 71 | 287 | 2.0 | 13.0 | 0.00 | 0.00 | 0.00 | 22 | 1018.1 |
| 20260904232558 | 71 | 221 | 4.0 | 14.0 | 0.00 | 0.00 | 0.00 | 25 | 1018.2 |
| 20260904232101 | 71 | 333 | 5.0 | 15.0 | 0.00 | 0.00 | 0.00 | 24 | 1018.1 |
| 20260904231606 | 71 | 169 | 4.0 | 15.0 | 0.00 | 0.00 | 0.00 | 24 | 1018.1 |
| 20260904231058 | 72 | 82 | 4.0 | 15.0 | 0.00 | 0.00 | 0.00 | 23 | 1018.2 |
| 20260904230558 | 72 | 177 | 4.0 | 14.0 | 0.00 | 0.00 | 0.00 | 26 | 1018.1 |
| 20260904230117 | 71 | 245 | 4.0 | 14.0 | 0.00 | 0.00 | 0.00 | 26 | 1018.0 |
| 20260904225557 | 72 | 71 | 5.0 | 11.0 | 0.00 | 0.00 | 0.00 | 26 | 1018.1 |
| 20260904225101 | 72 | 271 | 3.0 | 13.0 | 0.00 | 0.00 | 0.00 | 26 | 1018.2 |
| 20260904224605 | 72 | 279 | 5.0 | 13.0 | 0.00 | 0.00 | 0.00 | 26 | 1018.1 |
| 20260904224102 | 72 | 139 | 5.0 | 12.0 | 0.00 | 0.00 | 0.00 | 27 | 1018.1 |
| 20260904223601 | 73 | 149 | 4.0 | 12.0 | 0.00 | 0.00 | 0.00 | 26 | 1018.1 |
| 20260904223107 | 73 | 151 | 4.0 | 13.0 | 0.00 | 0.00 | 0.00 | 26 | 1018.2 |
| 20260904222601 | 73 | 155 | 5.0 | 13.0 | 0.00 | 0.00 | 0.00 | 25 | 1018.1 |
| 20260904222057 | 73 | 200 | 2.0 | 16.0 | 0.00 | 0.00 | 0.00 | 25 | 1018.0 |
| 20260904221608 | 73 | 235 | 6.0 | 16.0 | 0.00 | 0.00 | 0.00 | 24 | 1018.0 |
| 20260904221059 | 73 | 286 | 4.0 | 13.0 | 0.00 | 0.00 | 0.00 | 25 | 1018.0 |
| 20260904220559 | 73 | 244 | 3.0 | 13.0 | 0.00 | 0.00 | 0.00 | 25 | 1017.9 |
| 20260904220109 | 73 | 210 | 3.0 | 12.0 | 0.00 | 0.00 | 0.00 | 24 | 1018.0 |
| 20260904215600 | 74 | 172 | 4.0 | 12.0 | 0.00 | 0.00 | 0.00 | 25 | 1018.2 |
| 20260904215058 | 73 | 256 | 3.0 | 10.0 | 0.00 | 0.00 | 0.00 | 25 | 1018.1 |
| 20260904214607 | 73 | 89 | 4.0 | 10.0 | 0.00 | 0.00 | 0.00 | 26 | 1018.0 |
| 20260904214058 | 74 | 207 | 3.0 | 10.0 | 0.00 | 0.00 | 0.00 | 25 | 1018.1 |
| 20260904213558 | 73 | 86 | 3.0 | 13.0 | 0.00 | 0.00 | 0.00 | 24 | 1017.9 |
| 20260904213108 | 73 | 172 | 3.0 | 13.0 | 0.00 | 0.00 | 0.00 | 26 | 1018.2 |
| 20260904212558 | 73 | 307 | 6.0 | 24.0 | 0.00 | 0.00 | 0.00 | 25 | 1018.0 |
| 20260904212058 | 72 | 186 | 10.0 | 24.0 | 0.00 | 0.00 | 0.00 | 26 | 1018.0 |
| 20260904211613 | 74 | 175 | 7.0 | 13.0 | 0.00 | 0.00 | 0.00 | 25 | 1017.9 |
| 20260904211057 | 73 | 205 | 1.0 | 5.0 | 0.00 | 0.00 | 0.00 | 26 | 1017.9 |
| 20260904210559 | 73 | 250 | 2.0 | 5.0 | 0.00 | 0.00 | 0.00 | 26 | 1017.8 |
| 20260904210107 | 74 | 80 | 1.0 | 6.0 | 0.00 | 0.00 | 0.00 | 25 | 1017.7 |
| 20260904205558 | 74 | 285 | 2.0 | 7.0 | 0.00 | 0.00 | 0.00 | 25 | 1017.6 |
| 20260904205057 | 73 | 285 | 2.0 | 9.0 | 0.00 | 0.00 | 0.00 | 25 | 1017.6 |
| 20260904204604 | 73 | 325 | 4.0 | 9.0 | 0.00 | 0.00 | 0.00 | 25 | 1017.5 |
| 20260904204058 | 72 | 299 | 3.0 | 9.0 | 0.00 | 0.00 | 0.00 | 26 | 1017.6 |
| 20260904203558 | 71 | 64 | 2.0 | 8.0 | 0.00 | 0.00 | 0.00 | 27 | 1017.5 |
| 20260904203108 | 71 | 32 | 1.0 | 11.0 | 0.00 | 0.00 | 0.00 | 27 | 1017.6 |
| 20260904202557 | 69 | 348 | 2.0 | 13.0 | 0.00 | 0.00 | 0.00 | 26 | 1017.5 |
| 20260904202058 | 69 | 53 | 1.0 | 13.0 | 0.00 | 0.00 | 0.00 | 28 | 1017.5 |
| 20260904201633 | 69 | 60 | 5.0 | 12.0 | 0.00 | 0.00 | 0.00 | 27 | 1017.5 |
| 20260904201057 | 69 | 181 | 4.0 | 15.0 | 0.00 | 0.00 | 0.00 | 28 | 1017.5 |
| 20260904200558 | 69 | 21 | 6.0 | 15.0 | 0.00 | 0.00 | 0.00 | 28 | 1017.5 |
| 20260904200110 | 69 | 151 | 4.0 | 15.0 | 0.00 | 0.00 | 0.00 | 29 | 1017.6 |
| 20260904195602 | 68 | 51 | 7.0 | 15.0 | 0.00 | 0.00 | 0.00 | 28 | 1017.6 |
| 20260904195059 | 68 | 73 | 4.0 | 18.0 | 0.00 | 0.00 | 0.00 | 28 | 1017.6 |
| 20260904194606 | 68 | 42 | 6.0 | 18.0 | 0.00 | 0.00 | 0.00 | 28 | 1017.6 |
| 20260904194058 | 68 | 92 | 10.0 | 18.0 | 0.00 | 0.00 | 0.00 | 28 | 1017.7 |
| 20260904193558 | 68 | 67 | 6.0 | 15.0 | 0.00 | 0.00 | 0.00 | 29 | 1017.7 |
| 20260904193107 | 68 | 68 | 6.0 | 17.0 | 0.00 | 0.00 | 0.00 | 31 | 1017.7 |
| 20260904192558 | 67 | 53 | 6.0 | 17.0 | 0.00 | 0.00 | 0.00 | 29 | 1017.7 |
| 20260904192100 | 68 | 54 | 4.0 | 14.0 | 0.00 | 0.00 | 0.00 | 29 | 1017.8 |
| 20260904191603 | 67 | 311 | 5.0 | 16.0 | 0.00 | 0.00 | 0.00 | 30 | 1017.8 |
| 20260904191100 | 67 | 44 | 8.0 | 16.0 | 0.00 | 0.00 | 0.00 | 30 | 1017.7 |
| 20260904190602 | 67 | 44 | 5.0 | 18.0 | 0.00 | 0.00 | 0.00 | 30 | 1017.8 |
| 20260904190105 | 68 | 151 | 6.0 | 18.0 | 0.00 | 0.00 | 0.00 | 30 | 1017.7 |
| 20260904185601 | 68 | 154 | 5.0 | 15.0 | 0.00 | 0.00 | 0.00 | 31 | 1017.7 |
| 20260904185101 | 67 | 42 | 5.0 | 13.0 | 0.00 | 0.00 | 0.00 | 30 | 1017.9 |
| 20260904184620 | 67 | 27 | 6.0 | 13.0 | 0.00 | 0.00 | 0.00 | 30 | 1017.8 |
| 20260904184058 | 67 | 114 | 3.0 | 12.0 | 0.00 | 0.00 | 0.00 | 31 | 1017.9 |
| 20260904183601 | 66 | 162 | 6.0 | 13.0 | 0.00 | 0.00 | 0.00 | 32 | 1017.9 |
| 20260904183117 | 67 | 87 | 5.0 | 13.0 | 0.00 | 0.00 | 0.00 | 33 | 1017.9 |
| 20260904182558 | 68 | 146 | 3.0 | 11.0 | 0.00 | 0.00 | 0.00 | 31 | 1017.9 |
| 20260904182057 | 66 | 115 | 4.0 | 11.0 | 0.00 | 0.00 | 0.00 | 32 | 1017.9 |
| 20260904181606 | 66 | 335 | 4.0 | 10.0 | 0.00 | 0.00 | 0.00 | 32 | 1017.9 |
| 20260904181058 | 66 | 125 | 4.0 | 14.0 | 0.00 | 0.00 | 0.00 | 34 | 1017.9 |
| 20260904180558 | 66 | 163 | 6.0 | 14.0 | 0.00 | 0.00 | 0.00 | 34 | 1017.9 |
| 20260904180109 | 66 | 120 | 6.0 | 11.0 | 0.00 | 0.00 | 0.00 | 33 | 1018.1 |
| 20260904175557 | 67 | 80 | 1.0 | 5.0 | 0.00 | 0.00 | 0.00 | 35 | 1018.1 |
| 20260904175059 | 68 | 79 | 2.0 | 4.0 | 0.00 | 0.00 | 0.00 | 37 | 1018.0 |
| 20260904174605 | 68 | 321 | 1.0 | 3.0 | 0.00 | 0.00 | 0.00 | 36 | 1018.1 |
| 20260904174058 | 69 | 0 | 0.0 | 3.0 | 0.00 | 0.00 | 0.00 | 37 | 1018.1 |
| 20260904173557 | 67 | 310 | 0.0 | 3.0 | 0.00 | 0.00 | 0.00 | 37 | 1017.9 |
| 20260904173104 | 66 | 0 | 1.0 | 3.0 | 0.00 | 0.00 | 0.00 | 38 | 1017.9 |
| 20260904172558 | 65 | 314 | 1.0 | 3.0 | 0.00 | 0.00 | 0.00 | 39 | 1017.9 |
| 20260904172059 | 64 | 0 | 0.0 | 6.0 | 0.00 | 0.00 | 0.00 | 41 | 1018.0 |
| 20260904171616 | 64 | 138 | 0.0 | 6.0 | 0.00 | 0.00 | 0.00 | 40 | 1018.0 |
| 20260904171102 | 64 | 37 | 1.0 | 5.0 | 0.00 | 0.00 | 0.00 | 40 | 1018.1 |
| 20260904170558 | 62 | 12 | 1.0 | 5.0 | 0.00 | 0.00 | 0.00 | 43 | 1018.0 |
| 20260904170109 | 62 | 83 | 1.0 | 4.0 | 0.00 | 0.00 | 0.00 | 44 | 1018.1 |
| 20260904165600 | 62 | 45 | 1.0 | 4.0 | 0.00 | 0.00 | 0.00 | 44 | 1018.1 |
| 20260904165101 | 61 | 51 | 0.0 | 3.0 | 0.00 | 0.00 | 0.00 | 46 | 1018.2 |
| 20260904164634 | 60 | 0 | 1.0 | 3.0 | 0.00 | 0.00 | 0.00 | 45 | 1018.2 |
| 20260904164058 | 60 | 103 | 1.0 | 4.0 | 0.00 | 0.00 | 0.00 | 45 | 1018.2 |
| 20260904163558 | 59 | 39 | 1.0 | 4.0 | 0.00 | 0.00 | 0.00 | 47 | 1018.2 |
| 20260904163103 | 59 | 174 | 2.0 | 4.0 | 0.00 | 0.00 | 0.00 | 48 | 1018.3 |
| 20260904162557 | 60 | 87 | 1.0 | 3.0 | 0.00 | 0.00 | 0.00 | 47 | 1018.3 |
| 20260904162057 | 59 | 63 | 0.0 | 3.0 | 0.00 | 0.00 | 0.00 | 49 | 1018.3 |
| 20260904161605 | 58 | 117 | 1.0 | 2.0 | 0.00 | 0.00 | 0.00 | 49 | 1018.3 |
| 20260904161057 | 57 | 104 | 0.0 | 3.0 | 0.00 | 0.00 | 0.00 | 50 | 1018.3 |
| 20260904160558 | 57 | 80 | 1.0 | 4.0 | 0.00 | 0.00 | 0.00 | 51 | 1018.5 |
| 20260904160112 | 57 | 115 | 2.0 | 4.0 | 0.00 | 0.00 | 0.00 | 52 | 1018.4 |
| 20260904155558 | 58 | 71 | 0.0 | 4.0 | 0.00 | 0.00 | 0.00 | 52 | 1018.5 |
| 20260904155057 | 57 | 0 | 1.0 | 4.0 | 0.00 | 0.00 | 0.00 | 52 | 1018.5 |
| 20260904154605 | 56 | 71 | 0.0 | 2.0 | 0.00 | 0.00 | 0.00 | 53 | 1018.6 |
| 20260904154057 | 56 | 0 | 0.0 | 4.0 | 0.00 | 0.00 | 0.00 | 56 | 1018.6 |
| 20260904153558 | 55 | 59 | 1.0 | 4.0 | 0.00 | 0.00 | 0.00 | 57 | 1018.5 |
| 20260904153113 | 55 | 127 | 1.0 | 2.0 | 0.00 | 0.00 | 0.00 | 58 | 1018.5 |
| 20260904152558 | 55 | 49 | 0.0 | 3.0 | 0.00 | 0.00 | 0.00 | 58 | 1018.5 |
| 20260904152057 | 54 | 94 | 1.0 | 3.0 | 0.00 | 0.00 | 0.00 | 59 | 1018.6 |
| 20260904151604 | 53 | 58 | 0.0 | 2.0 | 0.00 | 0.00 | 0.00 | 60 | 1018.6 |
| 20260904151057 | 53 | 58 | 1.0 | 2.0 | 0.00 | 0.00 | 0.00 | 61 | 1018.5 |
| 20260904150558 | 52 | 0 | 0.0 | 2.0 | 0.00 | 0.00 | 0.00 | 63 | 1018.6 |
| 20260904150107 | 51 | 67 | 1.0 | 3.0 | 0.00 | 0.00 | 0.00 | 63 | 1018.5 |
| 20260904145558 | 51 | 0 | 1.0 | 3.0 | 0.00 | 0.00 | 0.00 | 63 | 1018.4 |
| 20260904145059 | 51 | 56 | 0.0 | 1.0 | 0.00 | 0.00 | 0.00 | 64 | 1018.4 |
| 20260904144619 | 50 | 0 | 0.0 | 5.0 | 0.00 | 0.00 | 0.00 | 66 | 1018.5 |
| 20260904144058 | 48 | 0 | 1.0 | 5.0 | 0.00 | 0.00 | 0.00 | 67 | 1018.4 |
| 20260904143558 | 48 | 51 | 1.0 | 5.0 | 0.00 | 0.00 | 0.00 | 69 | 1018.3 |
| 20260904143106 | 47 | 82 | 2.0 | 5.0 | 0.00 | 0.00 | 0.00 | 70 | 1018.3 |
| 20260904142558 | 46 | 46 | 3.0 | 4.0 | 0.00 | 0.00 | 0.00 | 70 | 1018.2 |
| 20260904142101 | 46 | 0 | 0.0 | 2.0 | 0.00 | 0.00 | 0.00 | 71 | 1018.2 |
| 20260904141606 | 46 | 115 | 0.0 | 3.0 | 0.00 | 0.00 | 0.00 | 70 | 1018.1 |
| 20260904141059 | 46 | 82 | 0.0 | 4.0 | 0.00 | 0.00 | 0.00 | 71 | 1018.2 |
| 20260904140600 | 46 | 101 | 2.0 | 4.0 | 0.00 | 0.00 | 0.00 | 72 | 1018.1 |
| 20260904140110 | 45 | 104 | 1.0 | 3.0 | 0.00 | 0.00 | 0.00 | 73 | 1018.1 |
| 20260904135559 | 45 | 0 | 1.0 | 3.0 | 0.00 | 0.00 | 0.00 | 74 | 1018.1 |
| 20260904135100 | 43 | 131 | 0.0 | 2.0 | 0.00 | 0.00 | 0.00 | 77 | 1017.9 |
| 20260904134604 | 44 | 0 | 0.0 | 3.0 | 0.00 | 0.00 | 0.00 | 76 | 1018.0 |
| 20260904134058 | 44 | 153 | 0.0 | 3.0 | 0.00 | 0.00 | 0.00 | 76 | 1018.0 |
| 20260904133600 | 44 | 129 | 2.0 | 3.0 | 0.00 | 0.00 | 0.00 | 77 | 1018.0 |
| 20260904133106 | 44 | 163 | 0.0 | 4.0 | 0.00 | 0.00 | 0.00 | 74 | 1017.9 |
| 20260904132559 | 45 | 0 | 0.0 | 4.0 | 0.00 | 0.00 | 0.00 | 75 | 1018.1 |
| 20260904132059 | 44 | 103 | 0.0 | 4.0 | 0.00 | 0.00 | 0.00 | 76 | 1017.9 |
| 20260904131612 | 44 | 0 | 2.0 | 4.0 | 0.00 | 0.00 | 0.00 | 76 | 1017.8 |
| 20260904131100 | 43 | 157 | 0.0 | 2.0 | 0.00 | 0.00 | 0.00 | 76 | 1017.9 |
| 20260904130558 | 43 | 0 | 0.0 | 3.0 | 0.00 | 0.00 | 0.00 | 79 | 1017.8 |